Temperature
20 19 19 19 19 20 22 23 24 24 25 26 26 26 25 24 22 20 19 19 19 18 18 19 19 18 18 18 18 18 18 18 18 18 18 18 18 18 18 18 18 18 18 18 18 18 18 18 18
20 19 19 19 20 21 22 24 24 25 25 26 26 26 25 23 21 19 19 19 19 18 18 18 18 18 18 18 18 18 18 18 18 18 18 18 18 18 18 18 18 18 18 18 18 18 18 18 18
19 19 19 20 21 22 23 24 24 26 26 26 26 25 24 22 21 19 19 19 18 18 18 18 18 18 18 18 18 18 18 18 18 18 18 18 18 18 18 18 18 18 18 18 18 18 18 18 18
19 20 20 21 22 24 24 24 25 26 26 26 26 24 22 21 20 19 19 19 18 18 18 18 18 18 18 18 18 18 18 18 18 18 18 17 18 18 18 18 18 18 18 18 18 18 18 18 18
20 20 21 22 23 24 25 26 26 26 26 26 25 24 21 20 20 19 19 19 19 18 18 18 18 18 18 18 18 18 17 17 17 17 17 17 17 17 17 18 18 18 18 18 18 18 18 18 18
20 21 22 22 24 25 26 26 26 26 26 26 25 24 21 20 20 19 19 19 19 18 18 18 18 18 18 18 17 17 17 17 17 17 17 17 17 17 17 17 17 17 17 17 17 18 18 18 18
20 21 22 23 24 25 26 26 26 26 26 25 25 24 21 20 20 20 19 19 19 19 18 18 18 18 18 17 17 17 17 17 17 17 17 17 17 17 17 17 17 17 17 17 17 17 17 18 18
21 21 23 23 24 24 25 26 26 26 25 25 25 24 21 20 20 20 19 19 19 19 19 18 18 17 17 17 17 17 17 17 16 16 16 16 16 16 16 16 16 16 17 17 17 17 17 17 17
22 22 22 23 23 24 25 25 25 25 25 25 24 23 22 21 20 20 20 20 19 19 19 18 18 18 17 17 17 17 16 16 16 16 16 16 16 16 16 16 16 16 16 16 17 17 17 17 17
22 22 23 24 25 25 25 25 25 25 25 25 23 22 22 21 21 21 20 20 20 19 19 19 18 18 18 17 17 17 16 16 16 16 16 15 15 16 16 16 16 16 16 16 16 16 17 17 17
24 23 24 25 25 25 25 25 25 25 24 25 23 22 22 21 21 21 21 20 20 19 19 19 18 18 18 17 17 17 16 16 16 16 16 15 15 15 15 15 15 15 15 15 16 16 16 17 17
25 25 25 25 25 26 25 26 25 25 25 24 24 22 22 21 21 21 21 21 20 19 19 18 18 18 18 17 17 17 16 16 16 16 15 15 15 15 15 15 15 15 15 15 15 16 16 16 16
25 25 25 25 25 25 26 26 25 25 25 24 24 23 22 22 22 21 21 21 20 19 18 18 18 18 17 17 17 17 16 16 16 15 15 15 15 15 15 15 15 15 15 15 15 15 16 16 16
25 25 25 25 25 26 26 26 25 25 24 24 24 23 23 23 22 22 21 21 20 19 19 18 18 17 17 17 16 16 16 16 15 15 15 15 15 15 15 15 15 15 15 15 15 15 15 15 16
25 25 25 25 25 26 25 25 25 25 24 24 24 24 23 23 22 22 21 21 20 20 19 18 17 17 17 16 16 16 16 15 15 15 15 15 14 14 14 14 14 14 14 14 15 15 15 15 15
25 25 24 24 25 25 25 23 25 25 24 24 24 24 23 23 22 22 21 21 20 19 19 18 17 17 16 16 16 15 15 15 15 15 14 14 14 14 14 14 14 14 14 14 14 14 14 15 15
24 23 24 24 25 25 25 24 25 25 25 25 24 24 23 23 22 22 21 21 20 19 19 18 17 16 16 16 15 15 15 15 15 14 14 14 14 14 14 14 14 14 14 14 14 14 14 14 15
23 23 23 23 24 25 25 25 25 25 25 25 25 24 24 23 22 22 21 20 19 19 18 18 17 16 16 16 15 15 15 14 14 14 14 14 14 14 14 14 13 13 13 14 13 14 14 14 14
24 23 23 23 25 25 25 25 26 26 25 25 25 25 25 24 23 22 21 20 19 19 18 18 17 16 16 15 15 15 15 14 14 14 14 13 13 13 13 13 13 13 13 13 13 13 14 14 14
24 23 23 24 26 26 26 25 26 26 26 26 26 26 25 24 23 22 21 20 19 19 18 17 17 16 16 15 15 15 14 14 14 14 14 13 13 13 13 13 13 13 13 13 13 13 13 14 14
25 24 23 23 25 26 25 25 25 26 26 26 26 26 25 24 23 22 21 20 19 19 18 17 17 16 16 15 15 14 14 14 14 14 14 13 13 13 13 13 13 13 13 13 13 13 13 14 14
24 25 25 25 24 24 25 24 25 25 25 26 26 26 25 25 24 22 21 20 19 18 18 17 16 16 15 15 15 14 14 14 14 14 14 13 13 13 13 13 13 13 13 13 13 13 13 13 14
24 25 26 25 25 24 25 24 25 26 25 26 26 26 25 24 24 22 21 20 19 18 18 17 16 16 15 15 15 14 14 14 14 14 14 14 13 13 13 13 13 13 13 13 13 13 13 13 13
25 25 26 26 25 23 25 25 24 26 26 26 26 26 25 24 23 22 21 20 19 18 17 17 16 16 15 15 15 15 14 14 14 14 14 14 14 14 13 13 13 13 13 13 13 13 13 13 13
25 24 23 23 22 23 25 25 25 26 27 27 26 26 25 24 23 22 21 20 19 18 17 17 16 16 15 15 15 15 14 14 14 14 14 14 14 14 13 13 13 13 13 13 13 13 13 13 13
25 25 22 21 22 23 25 25 26 27 27 27 26 26 25 24 23 22 21 20 19 18 17 17 16 16 15 15 15 15 15 14 14 14 14 14 14 14 13 13 13 13 13 13 13 13 13 13 13
25 25 25 24 24 24 26 26 26 26 26 26 26 25 24 24 23 22 21 20 19 18 17 17 16 16 15 15 15 15 14 14 14 14 14 14 14 14 13 13 13 13 13 13 13 13 13 13 13
26 26 26 25 24 24 25 26 25 25 25 26 26 25 24 24 23 22 21 20 19 18 17 17 16 16 15 15 15 15 14 14 14 14 14 14 14 14 13 13 13 13 13 13 13 13 13 13 13
26 26 26 26 25 24 23 24 27 26 26 26 26 26 25 24 23 22 21 20 19 18 17 17 16 16 16 15 15 15 15 14 14 14 14 14 14 14 14 14 13 13 13 13 13 13 13 13 13
27 26 26 24 24 25 24 24 27 27 27 27 26 26 25 24 23 22 21 20 19 18 18 17 17 16 16 16 15 15 15 14 14 14 14 14 14 14 14 14 13 13 13 13 13 13 13 13 13
Wind_Speed
9 8 5 2 2 3 2 1 4 3 3 5 5 7 10 11 8 7 3 7 12 14 14 12 11 10 9 8 7 6 6 5 5 4 3 3 2 3 3 3 3 4 4 4 4 4 4 4 4
8 6 4 2 3 2 0 3 6 5 3 2 4 8 10 11 10 8 5 8 12 13 13 12 11 10 9 8 8 7 6 6 5 5 4 4 3 3 4 4 4 4 5 5 5 5 4 4 4
8 6 3 3 3 1 2 4 4 4 4 4 6 9 8 7 8 6 7 9 12 12 14 13 11 10 9 8 7 7 6 6 5 5 4 4 4 4 4 4 4 5 5 5 5 5 5 4 4
5 3 4 4 5 1 3 3 3 4 4 5 5 8 8 8 7 9 9 10 12 12 13 12 10 9 8 7 7 6 6 5 5 5 4 4 3 4 4 4 5 5 5 6 5 5 5 5 5
3 3 4 4 4 2 3 3 2 3 4 6 7 9 9 10 12 12 9 9 10 10 11 12 10 9 8 7 6 5 5 5 5 4 4 3 3 4 4 5 5 5 5 5 5 5 5 6 5
2 3 3 4 0 3 2 2 2 4 6 6 6 9 8 10 11 10 10 9 9 9 9 12 11 9 8 7 6 5 4 3 3 3 3 3 4 4 5 5 4 5 5 5 5 5 5 5 6
2 3 5 5 1 2 3 3 4 4 6 6 3 6 9 11 9 9 9 9 7 7 7 9 10 10 9 8 6 4 2 0 1 2 3 4 5 6 6 5 4 4 5 5 5 5 6 6 6
3 3 6 4 1 3 4 3 5 5 6 5 4 5 9 12 10 9 9 8 7 6 5 5 6 7 7 8 8 6 4 4 4 5 6 7 9 10 10 7 5 5 5 5 5 5 6 6 7
4 3 4 3 2 4 4 3 3 4 5 5 8 10 13 15 11 9 7 7 6 5 4 4 4 4 3 5 7 7 6 7 7 7 9 9 9 7 7 5 4 5 7 7 7 7 7 7 8
4 3 4 2 1 3 3 3 2 3 4 5 10 12 14 13 10 8 7 6 6 5 3 3 3 3 1 1 3 2 2 4 5 3 3 4 5 5 4 2 6 7 9 10 10 10 9 8 7
5 4 5 2 1 3 2 2 1 2 2 5 10 12 12 11 8 6 5 5 5 5 3 3 2 2 1 1 2 1 1 1 1 4 4 4 4 4 2 1 3 5 7 6 6 7 6 5 4
7 6 4 2 2 0 1 2 2 2 2 5 10 13 11 10 9 7 5 5 5 6 5 3 3 2 2 2 1 1 1 1 1 3 5 3 1 3 2 1 1 2 2 2 2 2 4 3 3
9 7 5 2 4 3 3 3 2 3 4 7 10 11 11 10 9 7 7 6 5 6 5 4 1 3 3 2 1 2 2 2 2 3 5 3 1 3 3 2 1 2 2 1 2 3 3 3 3
5 6 5 3 4 4 4 4 4 4 5 8 9 9 9 8 7 7 7 5 5 5 5 4 2 3 3 3 3 3 2 1 2 3 5 5 3 2 3 3 2 2 2 2 2 3 2 2 2
6 6 5 5 6 4 4 6 7 7 7 8 9 10 8 7 6 5 6 4 5 5 5 5 3 3 4 5 5 3 2 3 2 2 4 5 4 3 2 3 3 2 2 2 2 3 2 2 2
8 7 6 5 5 4 5 5 5 8 9 9 8 9 8 7 7 6 6 5 6 4 5 6 4 4 5 5 3 3 3 3 2 3 4 6 6 5 2 3 3 3 2 2 2 1 2 2 2
7 7 7 5 7 6 6 3 5 7 9 8 8 9 10 9 7 6 6 6 6 5 4 5 5 3 5 3 1 1 2 2 2 4 4 6 7 7 3 2 2 3 2 2 3 2 1 2 2
5 6 4 3 6 8 7 6 8 11 10 9 9 10 11 11 10 8 8 6 6 4 4 5 6 3 4 1 2 3 3 3 2 2 3 5 5 6 4 2 2 2 2 2 3 3 3 2 2
6 5 4 4 7 7 8 8 8 11 10 9 9 9 10 10 11 10 9 7 6 5 4 5 4 4 4 2 2 2 2 3 2 2 3 5 5 5 4 3 3 2 1 2 3 2 3 2 2
8 5 4 4 4 5 6 7 6 8 11 10 8 7 8 10 11 11 9 8 5 5 5 4 3 4 5 2 1 1 1 2 1 2 2 4 4 5 5 4 4 3 2 2 3 2 2 2 2
6 4 3 4 4 6 7 6 6 6 7 8 8 5 5 9 10 12 10 8 6 5 5 3 3 5 5 2 1 2 2 2 1 2 2 2 2 2 2 4 4 4 2 1 2 1 1 2 2
4 4 5 5 4 4 5 4 5 8 9 9 9 7 5 7 8 10 10 8 7 6 5 4 4 4 4 2 2 2 1 2 2 2 1 2 1 1 2 3 3 3 2 2 2 1 1 1 1
3 4 6 6 6 7 7 5 2 6 9 9 9 8 7 8 8 10 10 8 7 7 6 3 4 4 3 2 3 1 1 2 2 2 2 2 1 2 1 2 3 3 2 1 2 1 1 1 1
2 5 8 7 6 6 6 4 1 3 6 8 9 8 8 8 8 9 9 8 7 7 6 4 4 4 3 1 1 1 1 2 2 3 3 3 1 2 2 2 3 2 2 2 1 2 2 1 1
5 4 3 2 3 3 3 3 1 5 5 4 8 9 9 8 8 9 10 9 8 8 6 5 5 4 3 1 1 1 2 1 1 2 2 3 2 2 3 3 2 2 3 2 2 2 1 1 1
6 5 1 2 3 3 4 3 5 8 6 5 5 8 8 9 8 8 9 9 8 8 7 6 6 4 3 2 1 1 2 0 1 1 2 2 2 2 3 4 3 2 2 2 1 1 1 1 0
3 4 5 5 8 6 3 5 7 8 7 5 6 7 7 8 9 8 9 9 9 8 7 6 6 5 4 3 2 1 1 1 1 2 2 2 2 2 3 4 3 2 1 2 1 1 1 1 0
6 6 4 4 4 4 2 1 5 7 6 7 7 8 8 8 9 9 8 9 9 8 7 7 6 5 4 3 2 2 1 1 0 2 2 2 3 2 2 3 3 2 1 1 1 1 1 1 0
6 6 4 4 4 3 3 3 5 5 4 4 6 7 8 9 8 8 8 8 9 9 8 7 6 5 4 3 3 3 2 1 1 1 1 2 2 2 2 2 3 2 2 2 1 1 2 2 1
4 6 5 4 5 5 4 0 3 5 4 3 3 5 7 8 8 8 9 9 8 9 9 8 7 6 5 4 3 3 2 2 1 1 2 2 2 2 2 3 3 3 3 2 2 1 1 1 1
Wind_Direction
180 192 202 217 247 240 258 105 87 53 50 35 30 52 69 57 52 89 125 101 108 110 112 106 99 95 91 89 85 76 68 63 56 47 38 26 13 3 349 341 337 337 334 333 331 331 337 346 357
196 193 214 234 254 265 23 74 77 73 63 29 55 59 72 69 75 96 102 97 105 109 109 104 99 92 87 81 75 68 61 54 49 43 36 25 10 353 337 326 322 323 323 320 321 317 316 319 331
213 213 238 242 259 314 64 70 85 85 59 37 60 63 58 63 80 99 117 117 106 103 102 100 99 93 86 79 74 67 58 51 43 35 26 19 13 0 346 336 325 322 317 313 314 314 307 298 296
198 217 247 252 272 340 96 110 107 97 94 61 66 78 76 59 84 112 119 115 109 106 107 106 102 96 90 83 75 65 54 47 39 28 18 8 359 356 343 331 320 314 310 310 308 301 296 288 281
224 248 256 262 262 92 88 99 110 94 84 69 72 90 91 88 100 112 114 110 108 112 116 119 115 110 102 95 84 68 52 43 35 23 11 357 337 325 319 313 309 307 305 307 308 299 285 272 268
249 254 267 280 17 76 79 81 92 93 95 87 93 106 104 117 115 120 119 116 112 117 122 127 132 130 121 111 99 80 56 36 20 8 356 334 315 300 296 294 292 294 298 299 298 291 280 269 262
238 275 275 281 86 95 85 53 44 60 73 67 73 101 122 126 126 128 123 117 115 113 121 134 146 148 146 136 127 118 112 60 306 297 294 288 283 275 269 267 270 282 282 287 286 283 275 267 262
238 279 291 310 74 95 80 57 61 59 76 61 44 94 127 134 135 132 129 130 130 128 127 129 133 135 148 157 159 161 179 213 242 251 256 262 267 259 248 245 242 259 268 270 272 272 270 264 258
258 259 297 325 41 84 89 75 70 76 88 84 69 84 119 130 138 143 142 137 125 116 117 121 114 110 146 169 156 181 201 215 237 241 242 252 263 262 239 218 212 238 253 257 257 260 262 257 248
213 254 289 295 63 104 109 107 112 124 124 116 107 109 124 138 149 154 150 140 134 125 99 85 92 102 75 20 121 183 207 205 242 270 258 265 293 302 298 195 222 240 247 250 247 253 258 250 239
222 227 267 286 33 121 137 134 151 115 137 132 133 136 143 147 151 154 142 127 120 111 87 66 48 69 61 76 47 335 288 226 323 359 339 338 338 328 316 265 228 250 253 248 250 247 250 238 223
245 254 253 317 328 234 180 165 153 145 109 117 127 144 150 158 159 161 145 126 119 105 92 55 19 19 27 54 24 297 0 22 24 2 350 359 350 326 324 332 336 288 289 270 257 249 253 252 252
236 255 265 240 232 229 210 191 205 160 140 131 135 150 161 168 164 159 139 139 131 122 123 101 5 10 27 55 322 15 28 14 1 23 341 348 2 323 331 310 341 313 306 301 285 270 274 271 265
233 235 235 231 228 224 219 210 201 170 164 152 153 162 171 165 165 152 150 146 131 116 112 100 58 27 19 35 26 23 16 336 10 30 337 349 356 328 331 325 327 303 298 291 278 281 280 272 272
240 241 239 228 227 215 226 232 204 166 175 174 173 169 161 161 162 165 144 139 118 111 106 93 61 37 31 39 25 11 347 15 23 16 346 347 348 334 344 354 334 314 329 327 315 306 303 290 277
233 236 238 232 224 205 222 254 192 160 180 186 184 163 159 166 178 169 141 132 112 103 93 92 72 45 47 43 20 354 9 19 1 10 9 354 352 351 1 356 326 322 345 329 304 302 318 304 290
233 237 239 215 211 205 221 249 162 171 189 191 190 174 169 171 183 159 139 127 110 100 91 101 90 59 64 42 334 7 18 12 0 22 20 1 351 350 354 341 328 332 340 341 318 324 300 292 290
230 249 264 244 215 219 224 231 180 191 199 200 194 190 179 180 178 159 137 124 121 120 111 94 93 80 77 53 5 33 20 2 15 27 21 3 348 351 347 328 327 332 348 338 313 318 313 294 290
255 257 250 250 224 226 233 240 206 188 191 204 207 201 188 175 163 146 138 140 148 138 113 100 109 102 85 47 11 13 4 358 9 17 21 359 357 350 333 329 321 327 320 303 307 310 307 294 293
256 264 265 282 264 258 252 248 235 194 194 200 211 209 185 159 152 143 147 154 158 135 120 116 110 100 92 78 355 333 21 333 10 357 14 9 1 357 342 343 335 326 309 316 300 298 312 307 314
253 271 279 279 284 273 270 255 231 190 198 190 206 206 181 160 163 153 153 150 147 135 119 109 107 110 104 109 43 12 9 315 342 350 17 357 342 346 327 328 324 321 325 299 283 275 274 291 301
268 262 254 262 274 279 262 273 210 177 183 190 189 186 178 153 152 146 151 150 152 137 126 142 132 117 116 121 81 6 336 344 5 0 352 326 350 344 337 321 313 309 306 303 301 308 266 253 287
244 287 281 268 267 271 260 268 204 174 181 181 176 175 167 155 156 149 152 150 151 138 133 143 129 118 107 96 122 250 355 355 351 340 335 327 337 312 318 316 304 299 290 296 303 300 277 231 242
240 271 268 255 263 260 247 254 194 186 166 166 160 159 156 154 151 147 143 141 140 132 133 144 137 120 112 141 183 170 79 344 332 335 337 321 311 312 345 327 317 324 335 345 323 304 273 232 245
231 256 290 281 255 265 221 218 152 104 100 127 147 152 152 149 150 148 147 147 145 143 147 156 149 143 152 207 253 152 122 310 326 337 323 320 333 354 350 343 343 355 353 348 338 313 305 248 220
228 236 242 309 291 283 231 204 113 113 99 96 119 131 142 148 149 152 152 150 153 153 156 165 159 160 164 201 248 45 92 4 2 334 318 330 343 13 4 345 2 22 5 342 347 329 311 284 246
255 237 226 252 270 270 211 142 126 127 133 150 150 140 153 158 154 157 156 154 158 158 163 172 163 164 171 191 186 111 59 52 352 316 323 351 344 5 10 349 360 16 359 340 6 352 332 319 139
268 290 276 277 320 313 317 112 127 138 153 169 172 167 169 164 160 161 160 161 160 159 164 167 165 170 177 183 177 146 147 132 288 310 343 345 343 10 356 338 344 1 9 355 32 26 8 6 77
223 248 268 284 282 297 331 17 74 111 135 168 182 169 166 162 162 163 160 159 159 160 163 167 174 178 168 174 169 150 161 191 259 289 321 313 330 346 347 351 353 3 4 6 47 37 37 1 7
276 283 290 296 311 309 298 5 108 112 124 159 170 155 160 160 161 160 156 156 161 167 170 174 178 175 165 166 168 156 166 168 223 308 320 322 338 344 353 12 5 7 11 5 31 32 28 355 0
Height
1497 1498 1499 1501 1503 1503 1499 1490 1484 1485 1483 1483 1483 1483 1486 1491 1497 1507 1507 1506 1506 1507 1507 1508 1509 1510 1511 1512 1513 1514 1514 1515 1515 1516 1517 1517 1518 1518 1519 1519 1520 1520 1520 1521 1521 1521 1521 1521 1521
1496 1498 1501 1501 1502 1504 1498 1487 1486 1485 1484 1484 1484 1485 1488 1495 1499 1504 1505 1507 1507 1507 1508 1509 1510 1511 1511 1512 1513 1513 1514 1514 1515 1515 1516 1516 1517 1517 1518 1518 1519 1519 1520 1520 1520 1520 1520 1521 1521
1497 1499 1501 1499 1498 1499 1495 1487 1485 1484 1484 1485 1485 1488 1493 1499 1501 1504 1506 1507 1508 1508 1509 1510 1510 1511 1511 1512 1513 1513 1513 1513 1514 1514 1515 1515 1515 1516 1516 1517 1517 1518 1518 1519 1519 1519 1519 1520 1520
1497 1499 1499 1498 1496 1488 1485 1484 1483 1484 1485 1486 1486 1491 1497 1501 1503 1505 1507 1508 1508 1509 1509 1510 1511 1511 1511 1512 1512 1512 1512 1512 1513 1513 1513 1513 1514 1514 1515 1515 1516 1516 1516 1517 1517 1518 1518 1519 1519
1498 1498 1497 1496 1491 1483 1481 1481 1482 1483 1484 1486 1488 1493 1500 1503 1504 1505 1507 1509 1509 1510 1510 1510 1511 1511 1511 1511 1512 1512 1512 1512 1512 1512 1512 1512 1512 1512 1513 1513 1513 1514 1514 1515 1515 1516 1516 1517 1517
1498 1496 1498 1497 1489 1483 1481 1482 1482 1483 1485 1487 1489 1493 1501 1504 1505 1507 1508 1509 1510 1510 1511 1511 1511 1511 1511 1511 1511 1511 1511 1511 1510 1510 1510 1510 1510 1510 1511 1511 1511 1511 1512 1512 1513 1513 1514 1515 1515
1498 1495 1495 1490 1487 1484 1482 1482 1483 1484 1486 1489 1490 1493 1500 1504 1505 1507 1509 1510 1511 1511 1512 1511 1511 1511 1511 1511 1511 1510 1510 1510 1509 1509 1509 1509 1509 1509 1509 1509 1509 1509 1509 1510 1510 1511 1512 1513 1513
1494 1495 1492 1488 1487 1486 1483 1484 1485 1486 1488 1490 1491 1493 1499 1503 1505 1507 1509 1510 1511 1511 1512 1512 1512 1512 1511 1510 1510 1510 1510 1509 1509 1508 1508 1508 1507 1507 1507 1507 1507 1507 1507 1507 1508 1509 1509 1510 1511
1493 1495 1495 1490 1487 1485 1484 1485 1486 1488 1489 1491 1493 1495 1498 1502 1505 1507 1509 1510 1511 1512 1512 1513 1512 1512 1512 1511 1510 1510 1509 1508 1508 1507 1507 1507 1507 1507 1506 1506 1506 1505 1505 1505 1505 1506 1507 1508 1509
1490 1494 1490 1484 1481 1483 1484 1485 1486 1487 1490 1492 1494 1497 1500 1502 1505 1507 1508 1509 1510 1511 1512 1513 1512 1512 1512 1512 1510 1509 1509 1508 1508 1507 1507 1506 1506 1506 1505 1505 1504 1504 1503 1503 1503 1504 1505 1505 1506
1485 1486 1484 1480 1480 1481 1483 1485 1486 1487 1490 1491 1494 1497 1500 1502 1504 1506 1508 1509 1510 1511 1511 1512 1512 1511 1511 1510 1510 1509 1508 1508 1507 1506 1506 1505 1505 1504 1504 1503 1503 1502 1502 1502 1502 1502 1503 1504 1505
1482 1480 1479 1480 1481 1481 1483 1484 1486 1488 1490 1491 1493 1496 1499 1501 1504 1506 1507 1509 1510 1510 1511 1511 1511 1511 1510 1509 1508 1508 1508 1507 1506 1505 1505 1504 1503 1503 1502 1502 1501 1501 1501 1500 1500 1500 1501 1502 1503
1479 1479 1479 1480 1481 1481 1482 1484 1486 1487 1489 1491 1493 1496 1498 1500 1503 1505 1506 1508 1509 1509 1509 1509 1509 1509 1509 1508 1507 1507 1506 1505 1505 1504 1503 1503 1502 1501 1501 1500 1500 1499 1499 1499 1499 1499 1499 1499 1500
1477 1478 1478 1479 1480 1480 1481 1482 1485 1486 1488 1490 1493 1495 1498 1500 1502 1503 1505 1506 1507 1508 1509 1509 1509 1508 1508 1507 1506 1506 1505 1504 1504 1502 1502 1502 1501 1500 1499 1499 1498 1498 1497 1497 1497 1497 1497 1497 1498
1475 1476 1477 1477 1478 1479 1481 1482 1482 1484 1487 1489 1492 1494 1496 1499 1501 1503 1504 1506 1506 1507 1508 1507 1508 1507 1507 1506 1505 1505 1504 1503 1502 1501 1501 1500 1499 1499 1498 1497 1496 1496 1496 1495 1495 1495 1495 1495 1496
1473 1476 1482 1477 1477 1478 1483 1488 1479 1482 1485 1488 1490 1492 1495 1498 1500 1501 1503 1505 1505 1506 1507 1506 1507 1506 1506 1505 1504 1504 1503 1502 1502 1501 1500 1499 1498 1497 1496 1495 1495 1494 1494 1494 1493 1493 1493 1494 1494
1475 1482 1482 1480 1476 1477 1480 1483 1479 1481 1483 1485 1487 1490 1493 1495 1498 1500 1502 1503 1504 1505 1506 1506 1505 1505 1505 1504 1504 1503 1503 1502 1501 1500 1499 1498 1497 1496 1495 1494 1493 1493 1492 1492 1492 1492 1492 1492 1493
1483 1482 1481 1482 1476 1475 1477 1478 1477 1478 1480 1482 1484 1487 1489 1492 1495 1497 1500 1502 1504 1505 1505 1505 1505 1505 1504 1504 1503 1503 1502 1501 1500 1499 1497 1496 1495 1494 1494 1493 1492 1491 1491 1490 1490 1490 1490 1491 1491
1476 1480 1483 1481 1474 1473 1474 1473 1472 1474 1477 1479 1481 1483 1485 1488 1492 1495 1498 1501 1503 1504 1504 1504 1504 1504 1503 1503 1502 1502 1501 1500 1499 1498 1496 1495 1494 1493 1492 1491 1491 1490 1490 1489 1489 1489 1489 1489 1490
1474 1479 1481 1477 1471 1471 1471 1471 1468 1470 1473 1475 1477 1480 1482 1485 1490 1493 1496 1500 1502 1503 1503 1504 1503 1503 1502 1502 1502 1501 1501 1500 1499 1497 1496 1494 1493 1492 1491 1490 1489 1489 1489 1488 1488 1488 1488 1488 1489
1473 1477 1480 1480 1472 1468 1471 1474 1469 1467 1470 1473 1475 1478 1480 1483 1487 1491 1495 1498 1500 1501 1502 1503 1503 1502 1501 1501 1501 1500 1500 1499 1498 1497 1495 1494 1492 1491 1490 1489 1488 1487 1487 1487 1487 1487 1487 1488 1488
1478 1472 1473 1473 1478 1480 1475 1486 1471 1466 1468 1470 1473 1476 1479 1482 1486 1489 1493 1496 1499 1500 1500 1501 1502 1502 1501 1501 1500 1500 1499 1498 1498 1496 1495 1493 1492 1490 1489 1488 1487 1486 1486 1486 1486 1486 1486 1487 1487
1473 1469 1469 1470 1475 1480 1474 1481 1475 1463 1468 1468 1470 1474 1477 1481 1485 1488 1491 1494 1497 1498 1499 1500 1500 1501 1500 1500 1499 1499 1498 1498 1497 1496 1494 1493 1492 1490 1489 1487 1486 1485 1485 1485 1485 1485 1485 1486 1486
1467 1470 1469 1469 1475 1488 1475 1480 1481 1465 1464 1464 1467 1471 1476 1480 1483 1487 1490 1493 1495 1497 1498 1499 1499 1499 1499 1499 1499 1498 1498 1497 1496 1495 1494 1493 1492 1490 1489 1487 1486 1485 1484 1484 1484 1484 1484 1485 1485
1469 1479 1491 1492 1495 1488 1469 1475 1475 1462 1459 1461 1465 1470 1474 1478 1482 1485 1488 1491 1493 1495 1496 1497 1498 1498 1498 1498 1498 1498 1497 1496 1496 1495 1494 1493 1492 1490 1489 1487 1486 1484 1483 1483 1483 1483 1483 1484 1484
1469 1475 1496 1509 1503 1488 1471 1473 1467 1458 1460 1463 1465 1469 1473 1477 1481 1484 1486 1488 1491 1493 1494 1495 1496 1497 1497 1497 1497 1497 1496 1496 1495 1494 1494 1493 1492 1490 1488 1487 1486 1484 1483 1482 1482 1482 1482 1483 1484
1469 1472 1472 1483 1483 1485 1471 1463 1462 1458 1461 1464 1466 1469 1473 1476 1479 1482 1485 1487 1489 1491 1492 1494 1494 1495 1496 1496 1496 1496 1495 1495 1494 1494 1494 1493 1492 1490 1489 1487 1486 1484 1483 1482 1481 1481 1482 1482 1483
1465 1466 1470 1479 1490 1492 1476 1468 1469 1465 1463 1464 1465 1468 1472 1474 1477 1480 1483 1485 1487 1488 1490 1492 1493 1494 1494 1495 1495 1495 1494 1494 1494 1494 1493 1492 1492 1490 1489 1487 1486 1485 1483 1482 1482 1481 1482 1482 1482
1466 1467 1467 1471 1473 1489 1493 1483 1458 1459 1459 1461 1463 1466 1469 1472 1475 1478 1480 1483 1485 1486 1488 1490 1491 1492 1493 1493 1494 1494 1493 1493 1493 1493 1493 1492 1491 1490 1489 1488 1486 1485 1484 1483 1482 1482 1482 1482 1482
1462 1464 1467 1480 1480 1475 1482 1481 1454 1455 1457 1459 1461 1464 1467 1470 1473 1475 1478 1480 1482 1484 1486 1488 1489 1490 1491 1492 1492 1493 1493 1492 1492 1492 1492 1492 1491 1490 1489 1488 1486 1485 1484 1483 1483 1482 1482 1482 1482